Location: Vernon
(50.2670°N, 119.2670°W)
Time: 06:12:05
(UTC-07:00)

Envisat - Visible Passes

Search period start: 19 October 2019 00:00
Search period end: 29 October 2019 00:00
Orbit: 764 x 766 km, 98.1° (Epoch: 19 October)

Date Brightness Start Highest point End Pass type
(mag) Time Alt. Az. Time Alt. Az. Time Alt. Az.
19 Oct 6.2 06:33:39 10° NE 06:36:29 15° E 06:39:18 10° ESE visible
19 Oct 4.3 19:30:42 10° S 19:35:31 43° W 19:40:22 10° NNW visible
20 Oct 3.1 18:53:33 10° SSE 18:58:38 86° WSW 19:03:45 10° NNW visible
20 Oct 6.1 20:35:59 10° WSW 20:38:27 13° W 20:40:55 10° NW visible
21 Oct 5.2 19:56:57 10° SSW 20:01:13 27° W 20:05:31 10° NW visible
22 Oct 6.5 06:23:12 10° ENE 06:25:03 12° E 06:26:53 10° ESE visible
22 Oct 3.9 19:19:15 10° S 19:24:12 53° W 19:29:12 10° NNW visible
23 Oct 2.9 18:42:18 10° SSE 18:47:22 79° ENE 18:52:29 10° NNW visible
23 Oct 5.9 20:23:49 10° SW 20:27:01 17° W 20:30:14 10° NW visible
24 Oct 6.0 06:47:15 10° NE 06:50:55 20° E 06:54:34 10° SE visible
24 Oct 4.8 19:45:19 10° SSW 19:49:51 32° W 19:54:26 10° NNW visible
25 Oct 3.5 19:07:51 10° S 19:12:53 65° WSW 19:17:58 10° NNW visible
26 Oct 3.0 18:31:07 10° SSE 18:36:08 65° ENE 18:41:11 10° N visible
26 Oct 5.6 20:11:53 10° SW 20:15:37 20° W 20:19:22 10° NW visible
27 Oct 6.1 06:36:25 10° NE 06:39:30 16° E 06:42:36 10° SE visible
27 Oct 4.4 19:33:45 10° SSW 19:38:31 40° W 19:43:18 10° NNW visible
28 Oct 3.1 18:56:31 10° SSE 19:01:37 80° WSW 19:06:43 10° NNW visible
28 Oct 6.1 20:39:25 10° WSW 20:41:29 12° W 20:43:33 10° WNW visible
